Погода в Либоховице

Чехия     50°24′20″N   14°02′20″E
темп.,
°C
ветер,
м/с
пор.,
м/с
влажн.,
%
обл.,
%
осадки,
мм/ч
давл.,
гПа
погр.,
м
6 мая, чт
чт623:00+5зюз5117375 0.0 1010494
02:00+2юз358299 0.0 101098
05:00+1юз24935 0.0 101165
08:00+5зюз5876100 0.0 1011788
11:00+8зюз7961100 0.2 10101662
14:00+11зюз6948100 0.4 10082093
17:00+9юз6672100 0.1 1007909
20:00+7юз3775100 0.2 1006253
7 мая, пт
пт723:00+6ю2596100 2.2 1006474
02:00+6юв2698100 4.5 1003359
05:00+7з61289100 0.6 1003881
08:00+5з61191100 0.6 10071075
11:00+6сз7118176 0.2 10101163
14:00+9зсз7115798 0.5 10112043
17:00+9зсз7105680 0.5 10131984
20:00+5з48825 1.4 1016333
8 мая, сб
сб823:00+2зюз34915 0.0 101953
02:000з23935 0.0 102045
05:000з22915 0.0 102126
08:00+5зюз23765 0.0 1021238
11:00+10юз3555100 0.1 10211527
14:00+13юз4639100 0.1 10192330
17:00+14ююз354142 0.0 10172165
20:00+9ююв337064 0.0 101743
9 мая, вс
вс923:00+7юв1164100 0.0 101813
02:00+4в217774 0.0 101810
05:00+3в118644 0.0 101711
08:00+7вюв237516 0.0 1017249
11:00+14юв356123 0.0 1015646
14:00+20юв575220 0.0 10131215
17:00+20юв686187 0.0 10111161
20:00+14вюв410785 0.0 1011334
10 мая, пн
пн1023:00+9в38845 0.0 1012164
02:00+8всв228839 0.0 101228
05:00+7в22895 0.0 101119
08:00+11юв24774 0.0 1011341
11:00+16ююв23660 0.0 1011627
14:00+21ю34590 0.0 10111049
17:00+23вюв345850 0.0 1010969
20:00+17в378237 0.0 1010174